Location: Monfort
(47.1967°N, 0.2115°W)
Time: 11:17:47
(UTC+00:00)

Meteor 2-16 Rocket - Pass Details

Date: 24 October 2020
Orbit: 941 x 956 km, 82.6° (Epoch: 27 November)

Event Time Altitude Azimuth Distance (km) Brightness Sun altitude
Rises 18:13:34 0° 350° (N) 3,618 7.6 -13.7°
Reaches altitude 10° 18:16:04 10° 351° (N) 2,670 6.9 -14.1°
Maximum altitude 18:22:11 89° 70° (ENE) 950 4.4 -15.1°
Drops below altitude 10° 18:28:16 10° 173° (S) 2,655 6.7 -16.2°
Sets 18:30:45 0° 173° (S) 3,597 7.4 -16.6°
